www.pogodaiklimat.ru

Погода и климат >> Архив погоды >> Бангладеш >> Teknaf


ПОГОДА в Teknaf

  • Прогноз погоды в Teknaf
  • Монитор погоды в Teknaf
  • Климат города

АРХИВ ПОГОДЫ в Teknaf

Время (UTC), дата Ветер
(напр.,м/с)
 
Видим.   Явления Облачность Т
(С)
Тd
(С)
f
(%)
Тe
(С)
Тes
(С)
Комфортность P
(гПа)
Po
(гПа)
Тmin
(С)
Tmax
(С)
R
(мм)
R24
(мм)
S
(см)
03 19.02 штиль 0 6000 м ясно +25.2 +14.0 50 +28 +39 жарко 1013.4 1012.8 +15.5
09 19.02 СЗ 3 6000 м ясно +29.0 +26.0 84 +44 +50 опасность
перегрева
1009.7 1009.1
12 19.02 СЗ 2 5000 м мгла ясно +25.4 +22.0 81 +33 +33 очень
душно
1010.3 1009.7 +31.5
15 19.02 штиль 0 5000 м мгла ясно +22.0 +18.0 78 +27 +27 душно 1011.9 1011.3
18 19.02 штиль 0 5000 м мгла ясно +19.2 +17.0 87 +21 +21 комфорт 1011.8 1011.2
00 20.02 штиль 0 5000 м мгла ясно +21.5 +16.0 71 +25 +25 комфорт 1012.1 1011.5
03 20.02 СЗ 1 6000 м ясно +25.8 +21.0 75 +32 +42 очень
душно
1012.3 1011.7 +20.0
06 20.02 Ю 1 6000 м ясно +30.3 +23.0 65 +40 +59 опасность
солнечного
удара
1011.9 1011.3
09 20.02 ЮЗ 2 6000 м ясно +29.4 +26.0 82 +44 +52 опасность
перегрева
1009.8 1009.2
12 20.02 СЗ 1 5000 м мгла ясно +26.0 +23.0 84 +35 +35 очень
душно
1009.0 1008.4 +31.8
15 20.02 С 1 5000 м мгла ясно +22.4 +17.0 72 +27 +27 душно 1010.5 1009.9
18 20.02 штиль 0 5000 м мгла ясно +22.3 +19.0 82 +28 +28 душно 1010.7 1010.1
21 20.02 штиль 0 5000 м мгла ясно +17.5 +17.0 97 +17 +17 1010.6 1010.0
00 21.02 штиль 0 3000 м дымка ясно +16.4 +15.0 91 +16 +16 1010.3 1009.7
03 21.02 штиль 0 5000 м мгла ясно +25.8 +16.0 55 +29 +40 душно 1011.8 1011.2 +16.0
06 21.02 С 1 6000 м ясно +30.0 +23.0 66 +40 +61 опасность
солнечного
удара
1010.5 1009.9
09 21.02 СЗ 4 6000 м ясно +29.0 +23.0 70 +39 +44 очень
душно
1008.0 1007.4
12 21.02 З 1 5000 м мгла ясно +26.2 +21.0 73 +33 +33 очень
душно
1009.0 1008.4 +30.8
18 21.02 штиль 0 5000 м мгла ясно +19.8 +14.0 69 +21 +21 комфорт 1009.9 1009.3
21 21.02 штиль 0 5000 м мгла ясно +17.9 +14.0 78 +18 +18 1009.6 1009.0
00 22.02 штиль 0 5000 м мгла ясно +19.3 +16.0 81 +21 +21 комфорт 1010.0 1009.4
03 22.02 штиль 0 6000 м ясно +25.2 +18.0 64 +30 +41 душно 1011.9 1011.3 +18.0
06 22.02 С 3 6000 м ясно +29.5 +25.0 77 +43 +56 опасность
перегрева
1010.4 1009.8
09 22.02 ЮЗ 2 6000 м ясно +28.6 +25.0 81 +41 +49 опасность
перегрева
1010.0 1009.4
12 22.02 С 2 5000 м мгла ясно +25.4 +22.0 81 +33 +33 очень
душно
1008.7 1008.1 +29.9
15 22.02 штиль 0 5000 м мгла ясно +21.3 +17.0 76 +25 +25 комфорт 1010.9 1010.3
18 22.02 штиль 0 5000 м мгла ясно +21.0 +20.0 94 +26 +26 душно 1011.4 1010.8
21 22.02 штиль 0 5000 м мгла ясно +20.4 +20.0 98 +24 +24 комфорт 1011.4 1010.8
00 23.02 штиль 0 5000 м мгла ясно +20.1 +19.0 93 +23 +23 комфорт 1011.5 1010.9
03 23.02 штиль 0 5000 м мгла ясно +24.4 +21.0 81 +31 +42 очень
душно
1013.1 1012.5 +19.8
06 23.02 СЗ 1 6000 м ясно +28.0 +22.0 70 +36 +56 опасность
солнечного
удара
1011.8 1011.2
09 23.02 З 3 6000 м ясно +27.0 +25.0 89 +39 +45 очень
душно
1009.5 1008.9
12 23.02 штиль 0 5000 м ясно +28.8 +23.0 71 +39 +39 очень
душно
1009.5 1008.9
15 23.02 штиль 0 5000 м мгла ясно +22.0 +21.0 94 +28 +28 душно 1012.0 1011.4
18 23.02 штиль 0 5000 м мгла ясно +20.4 +18.0 86 +24 +24 комфорт 1012.9 1012.3
21 23.02 штиль 0 5000 м мгла ясно +20.0 +18.0 88 +23 +23 комфорт 1013.3 1012.7
00 24.02 штиль 0 5000 м мгла ясно +20.5 +19.0 91 +24 +24 комфорт 1013.6 1013.0
03 24.02 штиль 0 6000 м ясно +26.4 +15.0 50 +29 +41 жарко 1016.0 1015.4 +19.5
09 24.02 З 2 6000 м ясно +30.9 +23.0 63 +41 +49 опасность
перегрева
1012.6 1012.0
12 24.02 СЗ 2 6000 м ясно +26.3 +23.0 82 +35 +35 очень
душно
1011.9 1011.3 +31.5
15 24.02 штиль 0 5000 м мгла ясно +21.8 +20.0 90 +27 +27 душно 1012.8 1012.2
18 24.02 штиль 0 5000 м мгла ясно +20.0 +14.0 68 +22 +22 комфорт 1014.3 1013.6
06 25.02 штиль 0 6000 м ясно +32.5 +26.0 69 +48 +71 опасность
перегрева
1013.3 1012.7
09 25.02 ЮЗ 1 6000 м ясно +31.0 +27.0 79 +48 +57 опасность
перегрева
1011.8 1011.2
12 25.02 штиль 0 6000 м ясно +28.0 +22.0 70 +36 +36 очень
душно
1011.8 1011.2 +33.1
15 25.02 Ю 1 6000 м ясно +23.1 +19.0 78 +29 +29 очень
душно
1011.5 1010.9
18 25.02 штиль 0 6000 м ясно +20.8 +16.0 74 +24 +24 комфорт 1011.7 1011.1

 

Местоположение метеостанции Teknaf (Бангладеш): широта 20.87 долгота 92.30 высота над уровнем моря 6 м.

В архиве по умолчанию представлена погода в Teknaf за последнюю неделю. Архивные данные за месяц целиком и за предыдущие месяцы, начиная с января 2011 года, Вы можете получить, выбрав интересующий диапазон дат из раскрывающегося списка и нажав кнопку "Ввод!".

Внимание! Время в таблицах - всемирное. Для получения местного времени необходимо прибавить поправку, которая в Teknaf равна 6.5 ч.

Смотрите также архив погоды в соседних городах и на ближайших метеорологических станциях:

Погода в Kyauktaw (Мьянма) (34 км)
Погода в Coxs Bazar (Бангладеш) (73 км)
Погода в Sittwe (Мьянма) (102 км)
Погода в Kutubdia (Бангладеш) (115 км)
Погода в Chittagong (Бангладеш) (163 км)
Погода в Mindat (Мьянма) (180 км)
Погода в Rangamati (Бангладеш) (185 км)
Погода в Sitakundu (Бангладеш) (200 км)
Погода в Sandwip (Бангладеш) (200 км)
Погода в Kyaukpyu (Мьянма) (207 км)

Пояснения к столбцам:

Ветер - указаны скорость ветра в м/с - средняя за 10 мин, порывы в срок и между сроками (в фигурных скобках) и направление, откуда дует ветер: С - северный, СВ - северо-восточный, В - восточный, ЮВ - юго-восточный, Ю - южный, ЮЗ - юго-западный, З - западный, СЗ - северо-западный.
Видимость - горизонтальная дальность видимости в метрах или километрах. При видимости от 1 до 10 км при отсутствии осадков обычно наблюдается дымка, при ухудшении видимости до 1 км и менее - туман. В сухую погоду видимость может ухудшаться дымом, пылью или мглою.
Явления - указаны атмосферные явления, наблюдавшиеся в срок или в последний час перед сроком; фигурными скобками обозначены явления, наблюдавшиеся между сроками (за 1-3 часа до срока); квадратными скобками обозначены град или гололедные отложения с указанием их диаметра в мм.
Облачность - указаны через наклонную черту общая и нижняя облачность в баллах и высота нижней границы облаков в метрах; квадратными скобками обозначены формы облаков: Ci - перистые, Cs - перисто-слоистые, Cc - перисто-кучевые, Ac - высококучевые, As - высокослоистые, Sc - слоисто-кучевые, Ns - слоисто-дождевые, Cu - кучевые, Cb - кучево-дождевые. Подробнее классификацию облаков см. в Атласе облаков (PDF).
T - Температура воздуха - температура, измеренная на высоте 2 м над землей.
Td - Температура точки росы - температура, при понижении до которой содержащийся в воздухе водяной пар достигнет насыщения.
f - Относительная влажность воздуха - влажноcть воздуха, измеренная на высоте 2 м над землей.
Te - Эффективная температура - температура, которую ощущает одетый по сезону человек в тени. Характеристика душности погоды. При расчете учитывается влияние влажности воздуха и скорости ветра на теплоощущения человека.
Tes - Эффективная температура на солнце - температура, которую ощущает человек, с поправкой на солнечный нагрев. Характеристика знойности погоды. Зависит от высоты солнца над горизонтом, облачности и скорости ветра. Ночью, в пасмурную погоду, а также при ветре 12 м/с и более поправка равна нулю.
P - Атмосферное давление - приведенное к уровню моря атмосферное давление.
Po - Атмосферное давление - измеренное на уровне метеостанции атмосферное давление.
Tmin - Минимальная температура - минимум температуры воздуха на высоте 2 м над землей.
Tmax - Максимальная температура - максимум температуры воздуха на высоте 2 м над землей.
R - Количество осадков - Количество выпавших осадков за период времени, мм. При наведении курсора мыши на число - период времени, за который выпало указанное количество осадков.
R24 - Количество осадков - Количество выпавших осадков за 24 часа, мм.
S - Снежный покров - Высота снежного покрова, см. При наведении курсора мыши на число - состояние снежного покрова и степень покрытия местности в баллах.